Erie, PA

9:17 AM EDT on April 30, 2017 (GMT -0400)
Erie International

Weather History for KERI - October, 2012

Change the Weather History Date:

Friday, October 19, 2012

  Actual Average Record
Temperature  
Mean Temperature 56 °F 52 °F  
Max Temperature 65 °F 60 °F 81 °F (1963)
Min Temperature 46 °F 44 °F 26 °F (1972)
Degree Days  
Heating Degree Days 9 13  
Month to date heating degree days 205 200  
Since 1 July heating degree days 329 324  
Cooling Degree Days 0 0  
Month to date cooling degree days 6 7  
Year to date cooling degree days 893 636  
Growing Degree Days 5 (Base 50)    
Moisture  
Dew Point 43 °F    
Average Humidity 62    
Maximum Humidity 86    
Minimum Humidity 37    
Precipitation  
Precipitation 0.07 in 0.12 in 1.29 in (1985)
Month to date precipitation 3.19 2.60  
Year to date precipitation 28.22 33.04  
Snow  
Snow 0.00 in 0.00 in - ()
Month to date snowfall 0.0 0.0  
Since 1 July snowfall 0.0 0.0  
Since 1 September snowfall 0.0 0.0  
Snow Depth 0.00 in    
Sea Level Pressure  
Sea Level Pressure 29.69 in    
Wind  
Wind Speed 8 mph (SSE)    
Max Wind Speed 20 mph    
Max Gust Speed 23 mph    
Visibility 10 miles    
Events Rain    
T = Trace of Precipitation, MM = Missing Value Source: NWS Daily Summary

Daily Weather History Graph

Daily Weather History Graph

Search for Another Location

Airport or City:

Trip Planner

Search our weather history database for the weather conditions in past years. The results will help you decide how hot, cold, wet, or windy it might be!

Date:

Astronomy

Oct. 19, 2012 Rise Set
Actual Time 7:38 AM EDT 6:32 PM EDT
Civil Twilight 7:10 AM EDT 7:00 PM EDT
Nautical Twilight 6:37 AM EDT 7:32 PM EDT
Astronomical Twilight 6:05 AM EDT 8:05 PM EDT
Moon 12:23 PM EDT (10/19) 10:05 PM EDT (10/19)
Length of Visible Light 11h 50m
Length of Day
10h 53m
Waxing Crescent, 23% of the Moon is Illuminated
Oct 19
Waxing Crescent
Oct 21
First Quarter
Oct 29
Full
Nov 6
Last Quarter
Nov 13
New

Hourly Weather History & Observations

Time (EDT) Temp. Windchill Dew Point Humidity Pressure Visibility Wind Dir Wind Speed Gust Speed Precip Events Conditions
12:51 AM 48.0 °F - 41.0 °F 77% 29.77 in 10.0 mi South 11.5 mph - N/A   Clear
1:51 AM 46.9 °F - 42.1 °F 83% 29.77 in 10.0 mi SSE 12.7 mph - N/A   Clear
2:51 AM 46.9 °F - 42.1 °F 83% 29.78 in 10.0 mi South 12.7 mph - N/A   Clear
3:51 AM 46.9 °F - 41.0 °F 80% 29.75 in 10.0 mi South 10.4 mph - N/A   Clear
4:51 AM 46.9 °F - 41.0 °F 80% 29.76 in 10.0 mi SSE 13.8 mph - N/A   Clear
5:51 AM 46.0 °F 40.6 °F 42.1 °F 86% 29.74 in 10.0 mi SSE 11.5 mph - N/A   Clear
6:51 AM 46.9 °F - 41.0 °F 80% 29.73 in 10.0 mi SSE 15.0 mph - N/A   Clear
7:51 AM 46.0 °F 40.6 °F 39.9 °F 79% 29.73 in 10.0 mi SSE 11.5 mph - N/A   Clear
8:51 AM 48.9 °F - 41.0 °F 74% 29.72 in 10.0 mi SE 10.4 mph - N/A   Overcast
9:51 AM 53.1 °F - 41.0 °F 64% 29.71 in 10.0 mi SSE 8.1 mph - N/A   Overcast
10:51 AM 55.9 °F - 42.1 °F 60% 29.70 in 10.0 mi SSE 8.1 mph - N/A   Overcast
11:51 AM 61.0 °F - 43.0 °F 52% 29.68 in 10.0 mi SSE 12.7 mph 18.4 mph N/A   Clear
12:51 PM 62.1 °F - 39.9 °F 44% 29.66 in 10.0 mi South 10.4 mph 19.6 mph N/A   Scattered Clouds
1:51 PM 64.0 °F - 37.0 °F 37% 29.64 in 10.0 mi South 12.7 mph 17.3 mph N/A   Overcast
2:51 PM 62.6 °F - 37.4 °F 39% 29.61 in 10.0 mi South 4.6 mph - N/A   Scattered Clouds
3:51 PM 62.1 °F - 39.9 °F 44% 29.60 in 10.0 mi West 4.6 mph - N/A   Overcast
4:51 PM 57.9 °F - 46.9 °F 67% 29.61 in 10.0 mi North 5.8 mph - 0.00 in Rain Light Rain
5:51 PM 57.0 °F - 48.0 °F 72% 29.62 in 9.0 mi NNE 3.5 mph - 0.00 in Rain Light Rain
6:51 PM 55.0 °F - 50.0 °F 83% 29.63 in 10.0 mi ENE 5.8 mph - 0.01 in   Overcast
7:51 PM 55.0 °F - 50.0 °F 83% 29.65 in 9.0 mi Calm Calm - 0.00 in Rain Light Rain
8:51 PM 54.0 °F - 51.1 °F 90% 29.65 in 10.0 mi Calm Calm - 0.01 in   Overcast
9:51 PM 53.1 °F - 51.1 °F 93% 29.65 in 9.0 mi Calm Calm - 0.00 in Rain Light Rain
10:51 PM 51.8 °F - 46.4 °F 82% 29.64 in 10.0 mi West 8.1 mph - N/A Rain Light Rain
11:51 PM 48.9 °F - 45.0 °F 86% 29.66 in 6.0 mi SSW 10.4 mph - 0.02 in Rain Light Rain